Wetterdaten: Freitag, 09.01.2015
Datum Zeit Temp. A. Mod.Schuppen Waschkche Feuchte A. Luftdruck Regen Wind Richtung Richtung Sonnenschein Helligkeit Solar
09.01.2015 00:04 6,4 C 6,3 C 6,7 C 87 % 1027,1 hPa 0,0 l/m 27,7 km/h (5 Bft) SW67.5 230 0 min 0 lux 0 W/m
09.01.2015 00:08 6,4 C 6,0 C 6,7 C 87 % 1027,1 hPa 0,0 l/m 32,1 km/h (5 Bft) W-SW45 240 0 min 0 lux 0 W/m
09.01.2015 00:14 6,4 C 6,1 C 6,7 C 87 % 1027,1 hPa 0,0 l/m 25,4 km/h (4 Bft) SW67.5 235 0 min 0 lux 0 W/m
09.01.2015 00:19 6,4 C 6,0 C 6,7 C 87 % 1027,1 hPa 0,0 l/m 25,2 km/h (4 Bft) SW45 225 0 min 0 lux 0 W/m
09.01.2015 00:24 6,4 C 6,0 C 6,7 C 87 % 1027,1 hPa 0,0 l/m 26,1 km/h (4 Bft) SW45 230 0 min 0 lux 0 W/m
09.01.2015 00:29 6,4 C 5,7 C 6,7 C 87 % 1026,1 hPa 0,0 l/m 25,3 km/h (4 Bft) SW67.5 225 0 min 0 lux 0 W/m
09.01.2015 00:34 6,3 C 5,7 C 6,7 C 86 % 1026,1 hPa 0,0 l/m 20,5 km/h (4 Bft) SW67.5 225 0 min 0 lux 0 W/m
09.01.2015 00:38 6,2 C 5,4 C 6,7 C 87 % 1026,1 hPa 0,0 l/m 18,0 km/h (3 Bft) SW45 215 0 min 0 lux 0 W/m
09.01.2015 00:43 6,1 C 5,1 C 6,7 C 87 % 1026,1 hPa 0,0 l/m 25,9 km/h (4 Bft) SW45 230 0 min 0 lux 0 W/m
09.01.2015 00:49 6,0 C 4,9 C 6,7 C 87 % 1026,1 hPa 0,0 l/m 25,1 km/h (4 Bft) SW67.5 225 0 min 0 lux 0 W/m
09.01.2015 00:54 6,0 C 4,7 C 6,7 C 87 % 1026,1 hPa 0,0 l/m 25,1 km/h (4 Bft) SW67.5 225 0 min 0 lux 0 W/m
09.01.2015 00:59 5,9 C 4,5 C 6,7 C 87 % 1026,1 hPa 0,0 l/m 19,7 km/h (3 Bft) SW22.5 220 0 min 0 lux 0 W/m
09.01.2015 01:04 5,8 C 4,4 C 6,7 C 87 % 1026,1 hPa 0,0 l/m 21,8 km/h (4 Bft) SW45 220 0 min 0 lux 0 W/m
09.01.2015 01:08 5,9 C 4,4 C 6,6 C 87 % 1026,1 hPa 0,0 l/m 24,2 km/h (4 Bft) SW45 215 0 min 200 klux 0 W/m
09.01.2015 01:13 5,8 C 4,4 C 6,7 C 87 % 1026,1 hPa 0,0 l/m 21,7 km/h (4 Bft) SW45 225 0 min 0 lux 0 W/m
09.01.2015 01:19 5,8 C 4,1 C 6,7 C 87 % 1025,1 hPa 0,0 l/m 27,1 km/h (5 Bft) SW45 215 0 min 0 lux 0 W/m
09.01.2015 01:24 5,6 C 4,0 C 6,7 C 87 % 1025,1 hPa 0,0 l/m 21,5 km/h (4 Bft) SW45 215 0 min 0 lux 0 W/m
09.01.2015 01:29 5,6 C 3,9 C 6,7 C 88 % 1025,1 hPa 0,0 l/m 22,8 km/h (4 Bft) SW45 225 0 min 0 lux 0 W/m
09.01.2015 01:34 5,7 C 4,1 C 6,7 C 88 % 1026,1 hPa 0,0 l/m 30,2 km/h (5 Bft) SW45 220 0 min 0 lux 0 W/m
09.01.2015 01:39 5,7 C 4,2 C 6,7 C 88 % 1026,1 hPa 0,0 l/m 30,2 km/h (5 Bft) SW45 220 0 min 0 lux 0 W/m
09.01.2015 01:43 5,6 C 4,2 C 6,7 C 88 % 1026,1 hPa 0,0 l/m 22,2 km/h (4 Bft) SW45 220 0 min 0 lux 0 W/m
09.01.2015 01:48 5,7 C 4,2 C 6,7 C 88 % 1026,1 hPa 0,0 l/m 22,1 km/h (4 Bft) SW22.5 220 0 min 0 lux 0 W/m
09.01.2015 01:53 5,7 C 4,7 C 6,7 C 88 % 1026,1 hPa 0,0 l/m 24,9 km/h (4 Bft) SW45 230 0 min 0 lux 0 W/m
09.01.2015 01:59 5,8 C 4,8 C 6,6 C 88 % 1026,1 hPa 0,0 l/m 22,0 km/h (4 Bft) SW45 215 0 min 0 lux 0 W/m
09.01.2015 02:04 5,8 C 4,8 C 6,6 C 88 % 1026,1 hPa 0,0 l/m 16,6 km/h (3 Bft) SW22.5 215 0 min 0 lux 0 W/m
09.01.2015 02:09 5,8 C 4,8 C 6,6 C 88 % 1025,1 hPa 0,0 l/m 22,2 km/h (4 Bft) S-SW22.5 205 0 min 0 lux 0 W/m
09.01.2015 02:13 5,8 C 4,8 C 6,6 C 87 % 1025,1 hPa 0,0 l/m 18,4 km/h (3 Bft) S-SW22.5 205 0 min 0 lux 0 W/m
09.01.2015 02:18 5,8 C 4,8 C 6,6 C 88 % 1026,1 hPa 0,0 l/m 21,6 km/h (4 Bft) SW22.5 220 0 min 0 lux 0 W/m
09.01.2015 02:23 5,9 C 5,0 C 6,6 C 88 % 1026,1 hPa 0,0 l/m 21,6 km/h (4 Bft) SW22.5 220 0 min 0 lux 0 W/m
09.01.2015 02:29 5,9 C 5,1 C 6,6 C 87 % 1026,1 hPa 0,0 l/m 25,6 km/h (4 Bft) SW45 230 0 min 0 lux 0 W/m
09.01.2015 02:34 5,9 C 5,1 C 6,6 C 87 % 1026,1 hPa 0,0 l/m 25,1 km/h (4 Bft) SW67.5 215 0 min 0 lux 0 W/m
09.01.2015 02:39 6,0 C 5,2 C 6,6 C 87 % 1026,1 hPa 0,0 l/m 28,5 km/h (5 Bft) SW45 215 0 min 0 lux 0 W/m
09.01.2015 02:44 6,0 C 5,3 C 6,6 C 87 % 1026,1 hPa 0,0 l/m 23,0 km/h (4 Bft) SW45 225 0 min 0 lux 0 W/m
09.01.2015 02:48 6,1 C 5,3 C 6,6 C 86 % 1026,1 hPa 0,0 l/m 28,7 km/h (5 Bft) S-SW67.5 210 0 min 0 lux 0 W/m
09.01.2015 02:53 6,1 C 5,3 C 6,6 C 86 % 1026,1 hPa 0,0 l/m 23,0 km/h (4 Bft) SW22.5 215 0 min 0 lux 0 W/m
09.01.2015 02:58 6,2 C 5,5 C 6,6 C 86 % 1026,1 hPa 0,0 l/m 29,1 km/h (5 Bft) SW45 220 0 min 0 lux 0 W/m
09.01.2015 03:04 6,2 C 5,5 C 6,6 C 86 % 1026,1 hPa 0,0 l/m 21,6 km/h (4 Bft) SW45 225 0 min 0 lux 0 W/m
09.01.2015 03:09 6,3 C 5,5 C 6,6 C 86 % 1026,1 hPa 0,0 l/m 26,3 km/h (4 Bft) SW45 215 0 min 0 lux 0 W/m
09.01.2015 03:14 6,3 C 5,3 C 6,6 C 86 % 1026,1 hPa 0,0 l/m 20,2 km/h (4 Bft) S-SW45 205 0 min 0 lux 0 W/m
09.01.2015 03:19 6,3 C 5,5 C 6,6 C 86 % 1026,1 hPa 0,0 l/m 21,1 km/h (4 Bft) SW45 225 0 min 0 lux 0 W/m
09.01.2015 03:23 6,3 C 5,5 C 6,7 C 86 % 1026,1 hPa 0,0 l/m 19,6 km/h (3 Bft) SW22.5 230 0 min 0 lux 0 W/m
09.01.2015 03:28 6,3 C 5,6 C 6,7 C 86 % 1027,1 hPa 0,0 l/m 20,8 km/h (4 Bft) SW22.5 225 0 min 0 lux 0 W/m
09.01.2015 03:34 6,4 C 5,8 C 6,7 C 86 % 1027,1 hPa 0,0 l/m 22,5 km/h (4 Bft) SW45 230 0 min 0 lux 0 W/m
09.01.2015 03:39 6,4 C 5,9 C 6,7 C 86 % 1026,1 hPa 0,0 l/m 21,2 km/h (4 Bft) SW22.5 230 0 min 0 lux 0 W/m
09.01.2015 03:44 6,4 C 6,0 C 6,7 C 86 % 1026,1 hPa 0,0 l/m 20,0 km/h (4 Bft) SW45 220 0 min 0 lux 0 W/m
09.01.2015 03:49 6,6 C 6,2 C 6,7 C 86 % 1026,1 hPa 0,0 l/m 24,4 km/h (4 Bft) SW67.5 215 0 min 0 lux 0 W/m
09.01.2015 03:54 6,8 C 6,4 C 6,7 C 86 % 1026,1 hPa 0,0 l/m 30,6 km/h (5 Bft) SW45 215 0 min 0 lux 0 W/m
09.01.2015 03:58 6,8 C 6,5 C 6,6 C 85 % 1026,1 hPa 0,0 l/m 35,6 km/h (5 Bft) SW67.5 230 0 min 0 lux 0 W/m
09.01.2015 04:04 6,8 C 6,6 C 6,7 C 85 % 1026,1 hPa 0,0 l/m 29,1 km/h (5 Bft) SW45 220 0 min 0 lux 0 W/m
09.01.2015 04:09 6,9 C 6,7 C 6,7 C 85 % 1026,1 hPa 0,0 l/m 32,5 km/h (5 Bft) SW45 230 0 min 0 lux 0 W/m
09.01.2015 04:14 6,9 C 6,7 C 6,7 C 85 % 1026,1 hPa 0,0 l/m 26,5 km/h (4 Bft) SW45 225 0 min 0 lux 0 W/m
09.01.2015 04:19 6,9 C 6,7 C 6,7 C 85 % 1026,1 hPa 0,0 l/m 39,8 km/h (6 Bft) SW67.5 215 0 min 0 lux 0 W/m
09.01.2015 04:24 7,0 C 6,6 C 6,7 C 85 % 1025,1 hPa 0,0 l/m 29,7 km/h (5 Bft) SW45 215 0 min 0 lux 0 W/m
09.01.2015 04:28 7,0 C 6,6 C 6,7 C 85 % 1025,1 hPa 0,0 l/m 26,5 km/h (4 Bft) SW45 220 0 min 0 lux 0 W/m
09.01.2015 04:33 7,0 C 6,6 C 6,7 C 85 % 1024,1 hPa 0,0 l/m 31,3 km/h (5 Bft) SW45 220 0 min 0 lux 0 W/m
09.01.2015 04:38 7,2 C 6,6 C 6,7 C 84 % 1024,1 hPa 0,0 l/m 39,9 km/h (6 Bft) SW45 215 0 min 0 lux 0 W/m
09.01.2015 04:44 7,2 C 6,5 C 6,7 C 84 % 1024,1 hPa 0,0 l/m 36,5 km/h (5 Bft) S-SW22.5 210 0 min 0 lux 0 W/m
09.01.2015 04:49 7,2 C 6,3 C 6,7 C 83 % 1023,1 hPa 0,0 l/m 33,5 km/h (5 Bft) S-SW45 205 0 min 0 lux 0 W/m
09.01.2015 04:54 7,1 C 6,1 C 6,8 C 83 % 1023,1 hPa 0,0 l/m 33,5 km/h (5 Bft) S-SW45 205 0 min 0 lux 0 W/m
09.01.2015 04:59 7,1 C 5,9 C 6,7 C 83 % 1023,1 hPa 0,0 l/m 32,7 km/h (5 Bft) S-SW22.5 210 0 min 0 lux 0 W/m
09.01.2015 05:03 7,0 C 5,8 C 6,8 C 83 % 1022,1 hPa 0,0 l/m 28,3 km/h (5 Bft) S-SW22.5 205 0 min 0 lux 0 W/m
09.01.2015 05:08 7,0 C 5,9 C 6,8 C 83 % 1022,1 hPa 0,0 l/m 35,3 km/h (5 Bft) S-SW67.5 200 0 min 0 lux 0 W/m
09.01.2015 05:14 7,1 C 6,1 C 6,8 C 83 % 1022,1 hPa 0,0 l/m 36,3 km/h (5 Bft) SW45 215 0 min 0 lux 0 W/m
09.01.2015 05:19 7,1 C 6,0 C 6,8 C 83 % 1022,1 hPa 0,0 l/m 33,2 km/h (5 Bft) S-SW45 200 0 min 8 lux 0 W/m
09.01.2015 05:24 7,1 C 6,2 C 6,8 C 83 % 1022,1 hPa 0,0 l/m 35,1 km/h (5 Bft) S-SW45 210 0 min 0 lux 0 W/m
09.01.2015 05:29 7,2 C 6,5 C 6,8 C 83 % 1022,1 hPa 0,0 l/m 36,3 km/h (5 Bft) S-SW22.5 210 0 min 0 lux 0 W/m
09.01.2015 05:34 7,2 C 6,5 C 6,8 C 82 % 1021,1 hPa 0,0 l/m 36,3 km/h (5 Bft) S-SW22.5 210 0 min 0 lux 0 W/m
09.01.2015 05:38 7,2 C 6,6 C 6,8 C 82 % 1021,1 hPa 0,0 l/m 36,3 km/h (5 Bft) S-SW22.5 210 0 min 0 lux 0 W/m
09.01.2015 05:43 7,4 C 6,8 C 6,8 C 81 % 1021,1 hPa 0,0 l/m 38,5 km/h (6 Bft) S-SW45 200 0 min 0 lux 0 W/m
09.01.2015 05:49 7,4 C 6,8 C 6,8 C 81 % 1021,1 hPa 0,0 l/m 39,6 km/h (6 Bft) SW22.5 220 0 min 0 lux 0 W/m
09.01.2015 05:54 7,4 C 6,8 C 6,8 C 82 % 1021,1 hPa 0,0 l/m 39,6 km/h (6 Bft) SW22.5 220 0 min 0 lux 0 W/m
09.01.2015 05:59 7,4 C 7,0 C 6,8 C 81 % 1022,1 hPa 0,0 l/m 31,4 km/h (5 Bft) SW67.5 220 0 min 0 lux 0 W/m
09.01.2015 06:03 7,4 C 7,1 C 6,8 C 81 % 1022,1 hPa 0,0 l/m 40,1 km/h (6 Bft) SW67.5 220 0 min 0 lux 0 W/m
09.01.2015 06:08 7,5 C 7,1 C 6,8 C 81 % 1021,1 hPa 0,0 l/m 37,7 km/h (5 Bft) SW45 220 0 min 0 lux 0 W/m
09.01.2015 06:13 7,5 C 7,1 C 6,8 C 81 % 1021,1 hPa 0,0 l/m 39,4 km/h (6 Bft) SW67.5 215 0 min 0 lux 0 W/m
09.01.2015 06:19 7,5 C 7,2 C 6,8 C 80 % 1022,1 hPa 0,0 l/m 38,8 km/h (6 Bft) SW45 220 0 min 0 lux 0 W/m
09.01.2015 06:24 7,6 C 7,1 C 6,9 C 79 % 1022,1 hPa 0,0 l/m 38,8 km/h (6 Bft) SW45 220 0 min 0 lux 0 W/m
09.01.2015 06:29 7,6 C 7,1 C 6,9 C 79 % 1021,1 hPa 0,0 l/m 33,6 km/h (5 Bft) SW45 220 0 min 0 lux 0 W/m
09.01.2015 06:34 7,6 C 7,2 C 6,9 C 78 % 1021,1 hPa 0,0 l/m 38,9 km/h (6 Bft) W-SW45 240 0 min 0 lux 0 W/m
09.01.2015 06:39 7,7 C 7,4 C 6,9 C 77 % 1021,1 hPa 0,0 l/m 41,7 km/h (6 Bft) SW67.5 235 0 min 0 lux 0 W/m
09.01.2015 06:43 7,7 C 7,4 C 6,9 C 78 % 1021,1 hPa 0,0 l/m 42,1 km/h (6 Bft) SW45 230 0 min 0 lux 0 W/m
09.01.2015 06:48 7,7 C 7,5 C 6,9 C 77 % 1021,1 hPa 0,0 l/m 41,2 km/h (6 Bft) SW67.5 230 0 min 0 lux 0 W/m
09.01.2015 06:54 7,7 C 7,5 C 6,9 C 77 % 1021,1 hPa 0,0 l/m 38,0 km/h (6 Bft) W-SW67.5 240 0 min 0 lux 0 W/m
09.01.2015 06:59 7,8 C 7,5 C 6,9 C 77 % 1021,1 hPa 0,0 l/m 37,3 km/h (5 Bft) SW67.5 220 0 min 0 lux 0 W/m
09.01.2015 07:04 7,9 C 7,6 C 6,9 C 76 % 1021,1 hPa 0,0 l/m 46,5 km/h (6 Bft) W-SW67.5 240 0 min 0 lux 0 W/m
09.01.2015 07:09 7,9 C 7,7 C 6,9 C 76 % 1021,1 hPa 0,0 l/m 53,7 km/h (7 Bft) SW67.5 230 0 min 0 lux 0 W/m
09.01.2015 07:13 7,9 C 7,7 C 6,9 C 76 % 1020,1 hPa 0,0 l/m 41,9 km/h (6 Bft) SW45 225 0 min 0 lux 0 W/m
09.01.2015 07:18 7,9 C 7,7 C 6,9 C 76 % 1020,1 hPa 0,0 l/m 49,8 km/h (7 Bft) SW45 235 0 min 0 lux 0 W/m
09.01.2015 07:24 7,9 C 7,6 C 6,9 C 75 % 1020,1 hPa 0,0 l/m 42,4 km/h (6 Bft) SW67.5 215 0 min 0 lux 0 W/m
09.01.2015 07:29 8,0 C 7,7 C 7,0 C 75 % 1020,1 hPa 0,0 l/m 49,6 km/h (7 Bft) SW67.5 215 0 min 0 lux 0 W/m
09.01.2015 07:34 8,0 C 7,8 C 7,0 C 75 % 1020,1 hPa 0,0 l/m 40,2 km/h (6 Bft) SW67.5 225 0 min 0 lux 0 W/m
09.01.2015 07:39 7,9 C 7,7 C 7,0 C 75 % 1020,1 hPa 0,0 l/m 50,5 km/h (7 Bft) SW67.5 215 0 min 0 lux 0 W/m
09.01.2015 07:44 7,9 C 7,7 C 7,0 C 75 % 1020,1 hPa 0,0 l/m 39,7 km/h (6 Bft) S-SW67.5 210 0 min 0 lux 0 W/m
09.01.2015 07:48 7,9 C 7,7 C 7,0 C 76 % 1020,1 hPa 0,0 l/m 40,0 km/h (6 Bft) N22.5 350 0 min 200 klux 0 W/m
09.01.2015 07:53 8,0 C 7,7 C 7,0 C 76 % 1019,1 hPa 0,0 l/m 48,0 km/h (6 Bft) SW67.5 220 0 min 0 lux 0 W/m
09.01.2015 07:58 7,9 C 7,7 C 7,0 C 76 % 1019,1 hPa 0,0 l/m 52,1 km/h (7 Bft) SW67.5 230 0 min 0 lux 0 W/m
09.01.2015 08:04 7,9 C 7,7 C 7,0 C 77 % 1019,1 hPa 0,0 l/m 48,9 km/h (7 Bft) SW67.5 225 0 min 0 lux 0 W/m
09.01.2015 08:09 7,9 C 7,7 C 7,1 C 77 % 1019,1 hPa 0,0 l/m 52,2 km/h (7 Bft) S-SW67.5 210 0 min 0 lux 0 W/m
09.01.2015 08:14 7,8 C 7,8 C 7,1 C 78 % 1019,1 hPa 0,0 l/m 52,2 km/h (7 Bft) S-SW67.5 210 0 min 0 lux 0 W/m
09.01.2015 08:18 7,9 C 7,8 C 7,1 C 78 % 1019,1 hPa 0,0 l/m 59,5 km/h (7 Bft) SW45 230 0 min 0 lux 0 W/m
09.01.2015 08:23 7,9 C 7,8 C 7,1 C 78 % 1019,1 hPa 0,0 l/m 55,5 km/h (7 Bft) W-SW67.5 240 0 min 0 lux 0 W/m
09.01.2015 08:29 7,9 C 7,7 C 7,2 C 78 % 1019,1 hPa 0,0 l/m 54,2 km/h (7 Bft) SW45 235 0 min 46 lux 0 W/m
09.01.2015 08:34 7,9 C 7,8 C 7,1 C 78 % 1019,1 hPa 0,0 l/m 54,0 km/h (7 Bft) SW67.5 225 0 min 58 lux 0 W/m
09.01.2015 08:39 7,9 C 7,8 C 7,2 C 79 % 1019,1 hPa 0,0 l/m 54,0 km/h (7 Bft) SW67.5 225 0 min 88 lux 0 W/m
09.01.2015 08:44 7,8 C 7,7 C 7,2 C 79 % 1019,1 hPa 0,0 l/m 46,3 km/h (6 Bft) SW67.5 230 0 min 93 lux 1 W/m
09.01.2015 08:49 7,7 C 7,7 C 7,1 C 80 % 1019,1 hPa 0,0 l/m 48,8 km/h (7 Bft) SW67.5 225 0 min 106 lux 1 W/m
09.01.2015 08:53 7,8 C 7,7 C 7,2 C 80 % 1019,1 hPa 0,0 l/m 48,9 km/h (7 Bft) SW67.5 225 0 min 151 lux 1 W/m
09.01.2015 08:58 7,8 C 7,7 C 7,2 C 80 % 1019,1 hPa 0,0 l/m 48,2 km/h (6 Bft) SW45 235 0 min 172 lux 1 W/m
09.01.2015 09:04 7,8 C 7,7 C 7,2 C 81 % 1019,1 hPa 0,0 l/m 47,1 km/h (6 Bft) W-SW45 240 0 min 292 lux 2 W/m
09.01.2015 09:09 7,8 C 7,7 C 7,2 C 81 % 1019,1 hPa 0,0 l/m 47,0 km/h (6 Bft) S-SO 150 5 min 200 klux 1368 W/m
09.01.2015 09:14 7,8 C 7,7 C 7,2 C 81 % 1018,1 hPa 0,0 l/m 39,2 km/h (6 Bft) SW67.5 225 0 min 401 lux 3 W/m
09.01.2015 09:19 7,9 C 7,8 C 7,2 C 81 % 1018,1 hPa 0,0 l/m 49,5 km/h (7 Bft) SW67.5 215 0 min 938 lux 6 W/m
09.01.2015 09:23 7,8 C 7,8 C 7,3 C 82 % 1018,1 hPa 0,0 l/m 44,7 km/h (6 Bft) SW67.5 225 0 min 955 lux 7 W/m
09.01.2015 09:28 7,8 C 7,7 C 7,3 C 82 % 1018,1 hPa 0,0 l/m 38,6 km/h (6 Bft) SW67.5 230 0 min 918 lux 6 W/m
09.01.2015 09:34 7,8 C 7,8 C 7,3 C 82 % 1018,1 hPa 0,0 l/m 46,9 km/h (6 Bft) SW67.5 235 0 min 1,10 klux 8 W/m
09.01.2015 09:39 7,9 C 8,0 C 7,3 C 82 % 1018,1 hPa 0,0 l/m 42,7 km/h (6 Bft) SW22.5 225 0 min 1,37 klux 9 W/m
09.01.2015 09:44 8,0 C 8,0 C 7,3 C 82 % 1018,1 hPa 0,0 l/m 56,2 km/h (7 Bft) SW67.5 230 0 min 1,13 klux 8 W/m
09.01.2015 09:49 8,0 C 8,0 C 7,3 C 82 % 1018,1 hPa 0,0 l/m 48,6 km/h (6 Bft) W-SW45 240 0 min 1,03 klux 7 W/m
09.01.2015 09:54 8,0 C 8,1 C 7,3 C 82 % 1018,1 hPa 0,0 l/m 51,1 km/h (7 Bft) SW45 230 0 min 1,08 klux 7 W/m
09.01.2015 09:58 8,0 C 8,1 C 7,3 C 83 % 1018,1 hPa 0,0 l/m 49,3 km/h (7 Bft) SW45 235 0 min 935 lux 6 W/m
09.01.2015 10:04 8,0 C 8,1 C 7,3 C 83 % 1018,1 hPa 0,0 l/m 48,6 km/h (6 Bft) SW45 230 0 min 1,39 klux 10 W/m
09.01.2015 10:09 8,0 C 8,1 C 7,4 C 83 % 1018,1 hPa 0,0 l/m 49,8 km/h (7 Bft) SW45 235 0 min 1,55 klux 11 W/m
09.01.2015 10:14 8,0 C 8,1 C 7,4 C 84 % 1018,1 hPa 0,0 l/m 49,8 km/h (7 Bft) W-SW67.5 250 0 min 1,79 klux 12 W/m
09.01.2015 10:19 8,0 C 8,1 C 7,4 C 84 % 1017,1 hPa 0,0 l/m 51,8 km/h (7 Bft) SW67.5 215 0 min 1,62 klux 11 W/m
09.01.2015 10:23 8,0 C 8,1 C 7,4 C 84 % 1017,1 hPa 0,0 l/m 55,6 km/h (7 Bft) W-SW67.5 240 0 min 1,77 klux 12 W/m
09.01.2015 10:28 8,0 C 8,1 C 7,4 C 84 % 1017,1 hPa 0,0 l/m 56,0 km/h (7 Bft) N45 350 5 min 158 klux 1081 W/m
09.01.2015 10:33 8,0 C 8,1 C 7,5 C 85 % 1017,1 hPa 0,0 l/m 50,1 km/h (7 Bft) SW67.5 225 0 min 2,13 klux 15 W/m
09.01.2015 10:39 8,1 C 8,1 C 7,5 C 85 % 1017,1 hPa 0,0 l/m 50,2 km/h (7 Bft) W-SW67.5 240 0 min 2,20 klux 15 W/m
09.01.2015 10:44 8,0 C 8,1 C 7,5 C 86 % 1017,1 hPa 0,0 l/m 57,4 km/h (7 Bft) W-SW45 240 0 min 2,39 klux 16 W/m
09.01.2015 10:49 8,1 C 8,1 C 7,5 C 86 % 1017,1 hPa 0,0 l/m 48,5 km/h (6 Bft) W-SW45 240 0 min 2,59 klux 18 W/m
09.01.2015 10:54 8,2 C 8,3 C 7,5 C 86 % 1017,1 hPa 0,0 l/m 51,8 km/h (7 Bft) SW45 235 0 min 2,71 klux 19 W/m
09.01.2015 10:58 8,1 C 8,2 C 7,6 C 86 % 1017,1 hPa 0,0 l/m 51,8 km/h (7 Bft) SW45 235 0 min 1,96 klux 13 W/m
09.01.2015 11:04 8,2 C 8,3 C 7,6 C 86 % 1017,1 hPa 0,0 l/m 49,5 km/h (7 Bft) W-SW45 240 0 min 1,96 klux 13 W/m
09.01.2015 11:09 8,2 C 8,2 C 7,6 C 86 % 1017,1 hPa 0,0 l/m 55,1 km/h (7 Bft) W-SW67.5 240 0 min 3,46 klux 24 W/m
09.01.2015 11:14 8,2 C 8,4 C 7,6 C 87 % 1017,1 hPa 0,0 l/m 55,1 km/h (7 Bft) W-SW67.5 240 0 min 3,46 klux 24 W/m
09.01.2015 11:19 8,2 C 8,5 C 7,7 C 87 % 1017,1 hPa 0,0 l/m 46,2 km/h (6 Bft) W-SW67.5 245 0 min 3,06 klux 21 W/m
09.01.2015 11:23 8,3 C 8,6 C 7,7 C 87 % 1017,0 hPa 0,0 l/m 56,0 km/h (7 Bft) SW45 225 0 min 3,74 klux 26 W/m
09.01.2015 11:28 8,4 C 8,8 C 7,7 C 87 % 1017,0 hPa 0,0 l/m 51,5 km/h (7 Bft) W-SW67.5 245 0 min 3,30 klux 23 W/m
09.01.2015 11:33 8,5 C 9,0 C 7,7 C 87 % 1017,0 hPa 0,0 l/m 51,5 km/h (7 Bft) W-SW67.5 245 0 min 4,98 klux 34 W/m
09.01.2015 11:39 8,6 C 9,2 C 7,8 C 87 % 1017,0 hPa 0,0 l/m 46,7 km/h (6 Bft) W-SW45 240 0 min 3,27 klux 22 W/m
09.01.2015 11:44 8,7 C 9,2 C 7,8 C 86 % 1017,0 hPa 0,0 l/m 46,4 km/h (6 Bft) W-SW45 245 0 min 7,08 klux 48 W/m
09.01.2015 11:49 8,9 C 9,5 C 7,8 C 85 % 1017,0 hPa 0,0 l/m 54,3 km/h (7 Bft) SW45 230 5 min 200 klux 1368 W/m
09.01.2015 11:54 8,9 C 9,7 C 7,8 C 85 % 1017,0 hPa 0,0 l/m 54,3 km/h (7 Bft) SW45 230 0 min 5,79 klux 40 W/m
09.01.2015 11:58 8,9 C 9,8 C 7,8 C 85 % 1016,0 hPa 0,0 l/m 54,3 km/h (7 Bft) SW45 230 0 min 6,07 klux 42 W/m
09.01.2015 12:04 9,2 C 9,8 C 7,9 C 85 % 1016,0 hPa 0,0 l/m 54,0 km/h (7 Bft) W-SW45 250 0 min 5,66 klux 39 W/m
09.01.2015 12:09 9,3 C 10,1 C 7,9 C 84 % 1017,0 hPa 0,0 l/m 49,5 km/h (7 Bft) W-SW45 245 0 min 6,33 klux 43 W/m
09.01.2015 12:14 9,4 C 10,1 C 8,0 C 84 % 1017,0 hPa 0,0 l/m 57,7 km/h (7 Bft) W-SW67.5 240 0 min 4,72 klux 32 W/m
09.01.2015 12:18 9,5 C 10,1 C 8,0 C 84 % 1017,0 hPa 0,0 l/m 57,7 km/h (7 Bft) W-SW67.5 240 0 min 4,26 klux 29 W/m
09.01.2015 12:23 9,5 C 10,1 C 8,0 C 84 % 1017,0 hPa 0,0 l/m 50,5 km/h (7 Bft) W-SW67.5 245 0 min 3,64 klux 25 W/m
09.01.2015 12:28 9,5 C 10,0 C 8,1 C 84 % 1017,0 hPa 0,0 l/m 50,5 km/h (7 Bft) W-SW67.5 245 0 min 2,88 klux 20 W/m
09.01.2015 12:34 9,6 C 10,0 C 8,4 C 84 % 1017,0 hPa 0,0 l/m 45,7 km/h (6 Bft) W-SW45 245 0 min 5,96 klux 41 W/m
09.01.2015 12:39 9,6 C 10,2 C 8,6 C 84 % 1016,0 hPa 0,0 l/m 45,7 km/h (6 Bft) W-SW45 245 0 min 5,06 klux 35 W/m
09.01.2015 12:44 9,6 C 10,3 C 8,7 C 84 % 1016,0 hPa 0,0 l/m 48,8 km/h (7 Bft) SW45 235 0 min 4,43 klux 30 W/m
09.01.2015 12:49 9,7 C 10,3 C 8,9 C 84 % 1016,0 hPa 0,0 l/m 53,6 km/h (7 Bft) W-SW45 245 0 min 5,02 klux 34 W/m
09.01.2015 12:53 9,7 C 10,4 C 9,0 C 84 % 1016,0 hPa 0,0 l/m 53,6 km/h (7 Bft) W-SW45 245 0 min 5,31 klux 36 W/m
09.01.2015 12:58 9,8 C 10,4 C 9,1 C 83 % 1016,0 hPa 0,0 l/m 50,7 km/h (7 Bft) W-SW45 245 0 min 6,76 klux 46 W/m
09.01.2015 13:04 9,8 C 10,6 C 9,2 C 83 % 1016,0 hPa 0,0 l/m 46,0 km/h (6 Bft) W-SW45 245 0 min 6,88 klux 47 W/m
09.01.2015 13:09 9,9 C 10,7 C 9,3 C 84 % 1016,0 hPa 0,0 l/m 15,1 km/h (3 Bft) S-SW22.5 205 5 min 200 klux 1368 W/m
09.01.2015 13:14 9,9 C 10,7 C 9,3 C 84 % 1016,0 hPa 0,0 l/m 45,4 km/h (6 Bft) W-SW22.5 255 0 min 4,40 klux 30 W/m
09.01.2015 13:18 10,0 C 10,8 C 9,4 C 82 % 1016,0 hPa 0,0 l/m 44,6 km/h (6 Bft) W22.5 260 0 min 4,86 klux 33 W/m
09.01.2015 13:23 10,2 C 10,8 C 9,4 C 82 % 1016,0 hPa 0,0 l/m 49,5 km/h (7 Bft) W-SW22.5 250 0 min 4,32 klux 30 W/m
09.01.2015 13:28 10,2 C 10,8 C 9,4 C 82 % 1017,0 hPa 0,0 l/m 49,7 km/h (7 Bft) W22.5 260 0 min 3,66 klux 25 W/m
09.01.2015 13:34 10,2 C 10,8 C 9,4 C 82 % 1017,0 hPa 0,0 l/m 49,0 km/h (7 Bft) W-SW45 250 0 min 5,38 klux 37 W/m
09.01.2015 13:39 10,4 C 10,9 C 9,4 C 82 % 1017,0 hPa 0,0 l/m 49,0 km/h (7 Bft) W-SW45 250 0 min 4,85 klux 33 W/m
09.01.2015 13:44 10,4 C 11,0 C 9,4 C 82 % 1016,0 hPa 0,0 l/m 39,6 km/h (6 Bft) W45 260 0 min 4,78 klux 33 W/m
09.01.2015 13:49 10,4 C 10,9 C 9,4 C 82 % 1016,0 hPa 0,0 l/m 48,7 km/h (7 Bft) W-SW45 255 0 min 3,23 klux 22 W/m
09.01.2015 13:53 10,4 C 10,9 C 9,3 C 81 % 1017,0 hPa 0,0 l/m 50,3 km/h (7 Bft) W45 265 0 min 1,57 klux 11 W/m
09.01.2015 13:58 10,4 C 10,9 C 9,3 C 81 % 1017,0 hPa 0,0 l/m 50,3 km/h (7 Bft) W45 265 0 min 3,56 klux 24 W/m
09.01.2015 14:04 10,7 C 11,0 C 9,3 C 80 % 1017,0 hPa 0,0 l/m 43,0 km/h (6 Bft) W-SW22.5 255 0 min 4,50 klux 31 W/m
09.01.2015 14:09 10,7 C 11,2 C 9,2 C 80 % 1016,0 hPa 0,0 l/m 46,0 km/h (6 Bft) W-SW22.5 255 0 min 4,30 klux 29 W/m
09.01.2015 14:14 10,6 C 11,2 C 9,2 C 80 % 1016,0 hPa 0,0 l/m 36,4 km/h (5 Bft) W-SW45 250 0 min 4,54 klux 31 W/m
09.01.2015 14:18 10,6 C 11,2 C 9,2 C 80 % 1016,0 hPa 0,0 l/m 42,2 km/h (6 Bft) W-SW22.5 250 0 min 4,55 klux 31 W/m
09.01.2015 14:23 10,7 C 11,2 C 9,2 C 80 % 1016,0 hPa 0,0 l/m 39,9 km/h (6 Bft) W-SW22.5 250 0 min 4,01 klux 27 W/m
09.01.2015 14:29 10,5 C 11,1 C 9,2 C 81 % 1016,0 hPa 0,0 l/m 41,6 km/h (6 Bft) W-SW45 255 0 min 4,59 klux 31 W/m
09.01.2015 14:34 10,6 C 11,2 C 9,2 C 81 % 1016,0 hPa 0,0 l/m 43,5 km/h (6 Bft) W-SW22.5 250 0 min 4,56 klux 31 W/m
09.01.2015 14:39 10,6 C 11,1 C 9,2 C 81 % 1016,0 hPa 0,0 l/m 37,8 km/h (5 Bft) W-SW22.5 240 0 min 4,56 klux 31 W/m
09.01.2015 14:44 10,7 C 11,1 C 9,1 C 80 % 1016,0 hPa 0,0 l/m 40,1 km/h (6 Bft) W-SW45 240 0 min 3,41 klux 23 W/m
09.01.2015 14:48 10,7 C 11,0 C 9,1 C 80 % 1016,0 hPa 0,0 l/m 43,9 km/h (6 Bft) W-SW45 250 0 min 3,16 klux 22 W/m
09.01.2015 14:53 10,7 C 11,0 C 9,1 C 80 % 1016,0 hPa 0,0 l/m 41,1 km/h (6 Bft) W-SW45 250 0 min 3,16 klux 22 W/m
09.01.2015 14:58 10,7 C 10,9 C 9,1 C 80 % 1016,0 hPa 0,0 l/m 41,3 km/h (6 Bft) W-SW45 245 0 min 2,39 klux 16 W/m
09.01.2015 15:04 10,6 C 10,9 C 9,1 C 80 % 1015,0 hPa 0,0 l/m 40,4 km/h (6 Bft) W-SW22.5 240 0 min 2,39 klux 16 W/m
09.01.2015 15:09 10,7 C 10,9 C 9,1 C 80 % 1015,0 hPa 0,0 l/m 42,7 km/h (6 Bft) W-SW45 240 0 min 2,70 klux 18 W/m
09.01.2015 15:14 10,8 C 10,9 C 9,1 C 79 % 1015,0 hPa 0,0 l/m 41,6 km/h (6 Bft) W-SW45 240 0 min 2,36 klux 16 W/m
09.01.2015 15:18 10,8 C 10,9 C 9,1 C 79 % 1016,0 hPa 0,0 l/m 44,3 km/h (6 Bft) SW45 235 0 min 1,98 klux 14 W/m
09.01.2015 15:23 10,7 C 10,8 C 9,1 C 79 % 1016,0 hPa 0,0 l/m 44,3 km/h (6 Bft) SW45 235 0 min 1,98 klux 14 W/m
09.01.2015 15:29 10,8 C 10,9 C 9,1 C 79 % 1016,0 hPa 0,0 l/m 47,3 km/h (6 Bft) W-SW45 240 0 min 1,64 klux 11 W/m
09.01.2015 15:34 10,8 C 10,8 C 9,1 C 79 % 1016,0 hPa 0,0 l/m 42,4 km/h (6 Bft) W-SW45 250 0 min 1,11 klux 8 W/m
09.01.2015 15:39 10,8 C 10,7 C 9,1 C 78 % 1016,0 hPa 0,0 l/m 44,9 km/h (6 Bft) W45 260 0 min 1,02 klux 7 W/m
09.01.2015 15:44 10,8 C 10,7 C 9,1 C 78 % 1016,0 hPa 0,0 l/m 39,9 km/h (6 Bft) W-SW45 245 0 min 1,45 klux 10 W/m
09.01.2015 15:48 11,0 C 10,8 C 9,1 C 78 % 1016,0 hPa 0,0 l/m 43,5 km/h (6 Bft) W-SW22.5 255 0 min 1,00 klux 7 W/m
09.01.2015 15:53 10,9 C 10,7 C 9,1 C 78 % 1016,0 hPa 0,0 l/m 36,2 km/h (5 Bft) W-SW45 250 0 min 915 lux 6 W/m
09.01.2015 15:58 11,0 C 10,8 C 9,1 C 78 % 1017,0 hPa 0,0 l/m 40,6 km/h (6 Bft) W22.5 270 0 min 483 lux 3 W/m
09.01.2015 16:04 11,1 C 10,9 C 9,1 C 77 % 1017,0 hPa 0,0 l/m 43,7 km/h (6 Bft) W22.5 265 0 min 489 lux 3 W/m
09.01.2015 16:09 11,0 C 10,8 C 9,1 C 77 % 1017,0 hPa 0,0 l/m 39,5 km/h (6 Bft) W22.5 280 0 min 489 lux 3 W/m
09.01.2015 16:14 11,1 C 10,8 C 9,1 C 76 % 1017,0 hPa 0,0 l/m 41,3 km/h (6 Bft) W22.5 260 0 min 376 lux 3 W/m
09.01.2015 16:18 11,0 C 10,6 C 9,0 C 77 % 1017,0 hPa 0,0 l/m 44,6 km/h (6 Bft) W22.5 270 0 min 376 lux 3 W/m
09.01.2015 16:23 11,0 C 10,6 C 9,0 C 77 % 1017,0 hPa 0,0 l/m 34,8 km/h (5 Bft) W22.5 270 0 min 288 lux 2 W/m
09.01.2015 16:29 11,1 C 10,6 C 9,1 C 77 % 1018,0 hPa 0,0 l/m 42,4 km/h (6 Bft) W22.5 270 0 min 190 lux 1 W/m
09.01.2015 16:34 11,0 C 10,5 C 9,0 C 77 % 1018,0 hPa 0,0 l/m 47,4 km/h (6 Bft) W67.5 260 0 min 93 lux 1 W/m
09.01.2015 16:39 11,2 C 10,7 C 9,0 C 64 % 1018,0 hPa 0,0 l/m 70,6 km/h (8 Bft) W45 265 0 min 65 lux 0 W/m
09.01.2015 16:44 11,4 C 10,9 C 9,0 C 71 % 1018,0 hPa 0,0 l/m 60,2 km/h (7 Bft) W45 280 0 min 58 lux 0 W/m
09.01.2015 16:48 11,1 C 10,6 C 9,0 C 73 % 1018,0 hPa 0,0 l/m 25,9 km/h (4 Bft) W-NW22.5 285 0 min 58 lux 0 W/m
09.01.2015 16:53 11,0 C 10,5 C 9,0 C 73 % 1018,0 hPa 0,0 l/m 46,3 km/h (6 Bft) W22.5 260 0 min 58 lux 0 W/m
09.01.2015 16:58 11,2 C 10,3 C 9,1 C 68 % 1018,0 hPa 0,0 l/m 71,6 km/h (8 Bft) W67.5 270 0 min 11 lux 0 W/m
09.01.2015 17:04 11,2 C 9,8 C 9,3 C 63 % 1018,0 hPa 0,0 l/m 73,0 km/h (8 Bft) W-NW22.5 285 0 min 8 lux 0 W/m
09.01.2015 17:09 11,2 C 9,6 C 9,3 C 64 % 1018,0 hPa 0,0 l/m 54,2 km/h (7 Bft) W-NW22.5 295 0 min 2 lux 0 W/m
09.01.2015 17:14 11,7 C 9,9 C 9,3 C 55 % 1017,0 hPa 0,0 l/m 60,9 km/h (7 Bft) W-NW45 285 0 min 1 lux 0 W/m
09.01.2015 17:18 11,4 C 10,7 C 9,3 C 60 % 1017,0 hPa 0,0 l/m 41,3 km/h (6 Bft) W-NW22.5 300 0 min 0 lux 0 W/m
09.01.2015 17:23 11,2 C 10,4 C 9,3 C 65 % 1017,0 hPa 0,0 l/m 36,2 km/h (5 Bft) W45 260 0 min 0 lux 0 W/m
09.01.2015 17:29 11,0 C 10,1 C 9,3 C 71 % 1018,0 hPa 0,0 l/m 43,3 km/h (6 Bft) W-NW22.5 295 0 min 0 lux 0 W/m
09.01.2015 17:34 10,8 C 9,7 C 9,3 C 71 % 1018,0 hPa 0,0 l/m 43,3 km/h (6 Bft) W-NW45 300 0 min 0 lux 0 W/m
09.01.2015 17:39 10,8 C 9,4 C 9,3 C 69 % 1018,0 hPa 0,0 l/m 45,3 km/h (6 Bft) W45 270 0 min 0 lux 0 W/m
09.01.2015 17:44 10,8 C 9,4 C 9,2 C 67 % 1017,0 hPa 0,0 l/m 54,7 km/h (7 Bft) W67.5 260 0 min 0 lux 0 W/m
09.01.2015 17:48 10,9 C 9,3 C 9,2 C 66 % 1017,0 hPa 0,0 l/m 49,4 km/h (7 Bft) W22.5 270 0 min 0 lux 0 W/m
09.01.2015 17:53 10,6 C 9,2 C 9,2 C 73 % 1017,0 hPa 0,0 l/m 36,9 km/h (5 Bft) W45 270 0 min 0 lux 0 W/m
09.01.2015 17:58 10,2 C 9,2 C 9,2 C 75 % 1017,0 hPa 0,0 l/m 39,3 km/h (6 Bft) W-SW67.5 250 0 min 0 lux 0 W/m
09.01.2015 18:04 9,6 C 8,7 C 9,2 C 76 % 1017,0 hPa 0,0 l/m 44,4 km/h (6 Bft) W45 270 0 min 0 lux 0 W/m
09.01.2015 18:09 9,4 C 8,5 C 9,2 C 76 % 1017,0 hPa 0,0 l/m 36,8 km/h (5 Bft) W-NW22.5 285 0 min 0 lux 0 W/m
09.01.2015 18:14 9,3 C 8,3 C 9,2 C 76 % 1017,0 hPa 0,4 l/m 42,1 km/h (6 Bft) W45 275 0 min 0 lux 0 W/m
09.01.2015 18:18 9,0 C 8,1 C 9,2 C 77 % 1017,0 hPa 0,0 l/m 38,8 km/h (6 Bft) W45 275 0 min 0 lux 0 W/m
09.01.2015 18:23 8,7 C 8,0 C 9,1 C 80 % 1017,0 hPa 0,0 l/m 30,8 km/h (5 Bft) W45 270 0 min 0 lux 0 W/m
09.01.2015 18:29 8,6 C 7,8 C 9,1 C 80 % 1017,0 hPa 0,4 l/m 36,0 km/h (5 Bft) W45 265 0 min 0 lux 0 W/m
09.01.2015 18:34 8,5 C 7,7 C 9,1 C 81 % 1017,0 hPa 0,0 l/m 23,1 km/h (4 Bft) W22.5 270 0 min 0 lux 0 W/m
09.01.2015 18:39 8,3 C 7,6 C 9,0 C 82 % 1017,0 hPa 0,0 l/m 23,2 km/h (4 Bft) W22.5 270 0 min 0 lux 0 W/m
09.01.2015 18:44 8,2 C 7,4 C 9,0 C 84 % 1017,1 hPa 0,4 l/m 22,2 km/h (4 Bft) W45 270 0 min 0 lux 0 W/m
09.01.2015 18:48 8,1 C 7,4 C 9,0 C 84 % 1016,0 hPa 0,4 l/m 20,0 km/h (4 Bft) W-SW22.5 250 0 min 0 lux 0 W/m
09.01.2015 18:53 8,0 C 7,4 C 8,9 C 85 % 1016,0 hPa 0,0 l/m 14,7 km/h (3 Bft) W-SW45 250 0 min 0 lux 0 W/m
09.01.2015 18:58 8,0 C 7,5 C 8,9 C 85 % 1016,0 hPa 0,4 l/m 15,9 km/h (3 Bft) SW22.5 235 0 min 0 lux 0 W/m
09.01.2015 19:04 7,9 C 7,5 C 8,9 C 86 % 1016,1 hPa 0,0 l/m 16,1 km/h (3 Bft) SW67.5 225 0 min 0 lux 0 W/m
09.01.2015 19:09 7,8 C 7,4 C 8,8 C 86 % 1016,1 hPa 0,4 l/m 14,8 km/h (3 Bft) SW45 225 0 min 0 lux 0 W/m
09.01.2015 19:13 7,8 C 7,4 C 8,8 C 86 % 1016,1 hPa 0,0 l/m 14,9 km/h (3 Bft) SW22.5 215 0 min 0 lux 0 W/m
09.01.2015 19:18 7,7 C 7,4 C 8,8 C 86 % 1016,1 hPa 0,4 l/m 15,6 km/h (3 Bft) SW22.5 220 0 min 0 lux 0 W/m
09.01.2015 19:23 7,7 C 7,3 C 8,8 C 87 % 1016,1 hPa 0,0 l/m 16,2 km/h (3 Bft) SW45 220 0 min 0 lux 0 W/m
09.01.2015 19:29 7,6 C 7,3 C 8,8 C 87 % 1015,1 hPa 0,4 l/m 17,7 km/h (3 Bft) SW22.5 220 0 min 0 lux 0 W/m
09.01.2015 19:34 7,6 C 7,3 C 8,8 C 88 % 1015,1 hPa 0,0 l/m 19,0 km/h (3 Bft) SW45 215 0 min 0 lux 0 W/m
09.01.2015 19:39 7,6 C 7,2 C 8,7 C 88 % 1015,1 hPa 0,0 l/m 14,7 km/h (3 Bft) S-SW22.5 210 0 min 0 lux 0 W/m
09.01.2015 19:44 7,5 C 7,2 C 8,7 C 88 % 1015,1 hPa 0,4 l/m 17,1 km/h (3 Bft) S-SW22.5 200 0 min 0 lux 0 W/m
09.01.2015 19:48 7,5 C 7,1 C 8,7 C 88 % 1015,1 hPa 0,0 l/m 15,6 km/h (3 Bft) S-SW22.5 195 0 min 0 lux 0 W/m
09.01.2015 19:53 7,4 C 7,1 C 8,7 C 88 % 1014,0 hPa 0,0 l/m 16,5 km/h (3 Bft) S45 190 0 min 0 lux 0 W/m
09.01.2015 19:59 7,5 C 7,1 C 8,7 C 88 % 1014,0 hPa 0,0 l/m 17,2 km/h (3 Bft) S22.5 185 0 min 0 lux 0 W/m
09.01.2015 20:04 7,6 C 7,1 C 8,6 C 88 % 1014,0 hPa 0,0 l/m 13,6 km/h (3 Bft) S-SW45 200 0 min 0 lux 0 W/m
09.01.2015 20:09 7,7 C 7,4 C 8,6 C 89 % 1014,0 hPa 0,0 l/m 20,0 km/h (4 Bft) SW45 215 0 min 0 lux 0 W/m
09.01.2015 20:13 8,0 C 7,6 C 8,6 C 89 % 1014,0 hPa 0,4 l/m 21,6 km/h (4 Bft) S-SW22.5 205 0 min 0 lux 0 W/m
09.01.2015 20:18 8,1 C 7,7 C 8,6 C 90 % 1014,0 hPa 0,0 l/m 24,8 km/h (4 Bft) SW45 215 0 min 0 lux 0 W/m
09.01.2015 20:23 8,2 C 7,9 C 8,6 C 90 % 1014,0 hPa 0,0 l/m 18,1 km/h (3 Bft) S-SW22.5 210 0 min 0 lux 0 W/m
09.01.2015 20:29 8,4 C 8,0 C 8,6 C 90 % 1014,0 hPa 0,0 l/m 19,8 km/h (3 Bft) SW45 215 0 min 0 lux 0 W/m
09.01.2015 20:34 8,4 C 8,1 C 8,6 C 90 % 1013,0 hPa 0,0 l/m 19,1 km/h (3 Bft) SW45 215 0 min 0 lux 0 W/m
09.01.2015 20:39 8,5 C 8,2 C 8,6 C 90 % 1013,0 hPa 0,4 l/m 17,6 km/h (3 Bft) SW67.5 220 0 min 0 lux 0 W/m
09.01.2015 20:44 8,5 C 8,3 C 8,6 C 90 % 1013,0 hPa 0,0 l/m 21,0 km/h (4 Bft) S-SW45 210 0 min 0 lux 0 W/m
09.01.2015 20:48 8,6 C 8,4 C 8,6 C 90 % 1013,0 hPa 0,4 l/m 19,4 km/h (3 Bft) S-SW45 210 0 min 0 lux 0 W/m
09.01.2015 20:53 8,7 C 8,5 C 8,6 C 91 % 1013,0 hPa 0,0 l/m 18,2 km/h (3 Bft) S-SW45 205 0 min 0 lux 0 W/m
09.01.2015 20:59 8,7 C 8,5 C 8,7 C 91 % 1013,0 hPa 0,0 l/m 17,5 km/h (3 Bft) SW22.5 215 0 min 0 lux 0 W/m
09.01.2015 21:04 8,8 C 8,6 C 8,6 C 91 % 1013,0 hPa 0,0 l/m 18,1 km/h (3 Bft) S-SW22.5 205 0 min 0 lux 0 W/m
09.01.2015 21:09 8,8 C 8,6 C 8,6 C 91 % 1013,0 hPa 0,4 l/m 25,7 km/h (4 Bft) S-SW45 210 0 min 0 lux 0 W/m
09.01.2015 21:13 8,8 C 8,7 C 8,7 C 91 % 1013,0 hPa 0,0 l/m 22,5 km/h (4 Bft) SW22.5 215 0 min 0 lux 0 W/m
09.01.2015 21:18 9,0 C 8,9 C 8,7 C 91 % 1012,0 hPa 0,0 l/m 26,0 km/h (4 Bft) SW45 220 0 min 0 lux 0 W/m
09.01.2015 21:23 9,1 C 9,0 C 8,7 C 91 % 1012,0 hPa 0,0 l/m 27,7 km/h (5 Bft) SW45 220 0 min 0 lux 0 W/m
09.01.2015 21:29 9,1 C 9,1 C 8,7 C 91 % 1012,0 hPa 0,0 l/m 27,7 km/h (5 Bft) SW45 220 0 min 0 lux 0 W/m
09.01.2015 21:34 9,2 C 9,3 C 8,8 C 91 % 1012,0 hPa 0,4 l/m 23,6 km/h (4 Bft) SW67.5 220 0 min 0 lux 0 W/m
09.01.2015 21:39 9,5 C 9,5 C 8,7 C 91 % 1012,0 hPa 0,0 l/m 23,6 km/h (4 Bft) SW67.5 220 0 min 0 lux 0 W/m
09.01.2015 21:44 9,6 C 9,6 C 8,8 C 91 % 1012,0 hPa 0,0 l/m 37,9 km/h (6 Bft) W-SW22.5 245 0 min 0 lux 0 W/m
09.01.2015 21:48 9,8 C 9,8 C 8,8 C 91 % 1012,0 hPa 0,0 l/m 31,2 km/h (5 Bft) W-SW45 240 0 min 0 lux 0 W/m
09.01.2015 21:53 10,0 C 10,0 C 8,8 C 92 % 1012,0 hPa 0,0 l/m 40,9 km/h (6 Bft) SW45 235 0 min 0 lux 0 W/m
09.01.2015 21:59 10,2 C 10,1 C 8,9 C 91 % 1012,0 hPa 0,0 l/m 33,4 km/h (5 Bft) W-SW45 245 0 min 0 lux 0 W/m
09.01.2015 22:04 10,3 C 10,3 C 9,0 C 91 % 1012,0 hPa 0,0 l/m 46,4 km/h (6 Bft) W-SW22.5 250 0 min 0 lux 0 W/m
09.01.2015 22:09 10,4 C 10,4 C 9,0 C 91 % 1012,0 hPa 0,0 l/m 43,5 km/h (6 Bft) W-SW45 240 0 min 0 lux 0 W/m
09.01.2015 22:13 10,7 C 10,6 C 9,0 C 91 % 1012,0 hPa 0,0 l/m 46,0 km/h (6 Bft) W-SW67.5 240 0 min 0 lux 0 W/m
09.01.2015 22:18 10,8 C 10,8 C 9,1 C 91 % 1012,0 hPa 0,0 l/m 47,5 km/h (6 Bft) W-SW22.5 250 0 min 0 lux 0 W/m
09.01.2015 22:24 11,0 C 11,0 C 9,2 C 91 % 1012,0 hPa 0,0 l/m 50,5 km/h (7 Bft) W-SW45 245 0 min 0 lux 0 W/m
09.01.2015 22:29 11,1 C 11,0 C 9,3 C 91 % 1012,0 hPa 0,0 l/m 47,3 km/h (6 Bft) W-SW45 255 0 min 0 lux 0 W/m
09.01.2015 22:34 11,3 C 11,1 C 9,4 C 91 % 1012,0 hPa 0,0 l/m 43,2 km/h (6 Bft) W-SW45 250 0 min 0 lux 0 W/m
09.01.2015 22:39 11,4 C 11,4 C 9,5 C 91 % 1012,0 hPa 0,0 l/m 48,4 km/h (6 Bft) W45 260 0 min 0 lux 0 W/m
09.01.2015 22:44 11,6 C 11,5 C 9,6 C 91 % 1012,0 hPa 0,0 l/m 50,9 km/h (7 Bft) W-SW45 255 0 min 0 lux 0 W/m
09.01.2015 22:48 11,6 C 11,6 C 9,6 C 91 % 1012,0 hPa 0,0 l/m 48,9 km/h (7 Bft) W22.5 260 0 min 0 lux 0 W/m
09.01.2015 22:53 11,6 C 11,7 C 9,7 C 91 % 1012,0 hPa 0,0 l/m 43,6 km/h (6 Bft) W-SW45 250 0 min 0 lux 0 W/m
09.01.2015 22:59 11,8 C 11,8 C 9,7 C 91 % 1012,0 hPa 0,0 l/m 50,7 km/h (7 Bft) W-SW22.5 255 0 min 0 lux 0 W/m
09.01.2015 23:04 12,0 C 11,9 C 9,8 C 91 % 1012,0 hPa 0,0 l/m 45,9 km/h (6 Bft) W-SW22.5 250 0 min 0 lux 0 W/m
09.01.2015 23:09 12,0 C 12,0 C 9,8 C 91 % 1012,0 hPa 0,0 l/m 47,1 km/h (6 Bft) W-SW67.5 255 0 min 0 lux 0 W/m
09.01.2015 23:13 12,1 C 12,1 C 9,9 C 91 % 1012,0 hPa 0,0 l/m 50,4 km/h (7 Bft) W-SW45 255 0 min 0 lux 0 W/m
09.01.2015 23:18 12,2 C 12,2 C 10,1 C 90 % 1012,0 hPa 0,0 l/m 50,6 km/h (7 Bft) W22.5 260 0 min 0 lux 0 W/m
09.01.2015 23:24 12,3 C 12,2 C 10,1 C 90 % 1012,0 hPa 0,0 l/m 48,3 km/h (6 Bft) W-SW22.5 255 0 min 0 lux 0 W/m
09.01.2015 23:29 12,4 C 12,4 C 10,2 C 90 % 1012,0 hPa 0,0 l/m 62,2 km/h (7 Bft) W45 260 0 min 0 lux 0 W/m
09.01.2015 23:34 12,6 C 12,6 C 10,3 C 89 % 1011,9 hPa 0,0 l/m 57,4 km/h (7 Bft) W22.5 265 0 min 0 lux 0 W/m
09.01.2015 23:39 12,9 C 12,6 C 10,3 C 88 % 1011,9 hPa 0,0 l/m 60,4 km/h (7 Bft) W-SW45 255 0 min 0 lux 0 W/m
09.01.2015 23:43 12,9 C 12,7 C 10,4 C 88 % 1011,9 hPa 0,0 l/m 60,4 km/h (7 Bft) W-SW45 255 0 min 0 lux 0 W/m
09.01.2015 23:48 13,1 C 12,8 C 10,4 C 87 % 1011,9 hPa 0,0 l/m 45,0 km/h (6 Bft) W-SW45 255 0 min 0 lux 0 W/m
09.01.2015 23:53 13,2 C 12,8 C 10,5 C 86 % 1011,9 hPa 0,0 l/m 57,5 km/h (7 Bft) W-SW45 250 0 min 0 lux 0 W/m
09.01.2015 23:59 13,1 C 12,8 C 10,5 C 86 % 1011,9 hPa 0,0 l/m 48,7 km/h (7 Bft) W22.5 270 0 min 0 lux 0 W/m
_ Min-Zeit 01:24 01:29 01:08 17:14 23:53 - 20:04 - - - - -
Minimum _ 5,6 C 3,9 C 6,6 C 55 % 1011,9 hPa - 13,6 km/h (3 Bft) - - - - -
_ Max-Zeit 23:53 23:48 23:53 21:53 03:28 18:14 17:04 - - 09:09 01:08 09:09
Maximum _ 13,2 C 12,8 C 10,5 C 92 % 1027,1 hPa 0,4 l/m 73,0 km/h
W-NW (8 Bft)
- - 5 min 200 klux 1368 W/m
Durchschnitt _ 8,6 C 8,4 C 8,0 C 83 % 1018,6 hPa #5,0 l/m 38,3 km/h (6 Bft) SW - #20 min. 4,64 klux 73 W/m